TWNKLBDS
20 AUCTIONS | May 26, 2019 00:29:56
Charger/Phone Fast Charge - EU Plug
Highest bidder: Bidder 1 transparent.gif
Item Condition: New
Seller location: United States
Ends within:

closed

60 seconds will be added to the timer if a bid is received within 60 seconds before timer ends.
# of bids: 102 (Hide history)
USD Value: US$8.59 (for reference only)
Current Bid: 5,049 YEM
Shipping fee: 500 YEM
This auction is closed
Meet the seller
  • Feedback received 133 times
  • Positive feedback: (92%)
  • Member since 07/14/2018
View active auctions

Report this item

Item description

This charger has a good appearance and fast charging speed. One of two styles, easy to carry. The input voltage is AC100-240V, suitable for all electronic products such as mobile phones, tablet computers, MP3, MP4, GPS, game consoles and so on.

Specifications

Input: AC100-240V / 50-60Hz

Total output: 5V 2.1A

Power:10W

Product size:8.3 x 4.3 x 3.5 [cm]

Net weight: 53 grams

Package Includes

  • 1 x Charger

 

Worldwide shipping available (except sanctioned countries and select other countries - if you have any questions about this item and shipping, please contact us), see Shipping conditions and Shipping countries & terms below for more details); allow up to 2 weeks for processing and 4-8 weeks international shipping in select locations (items generally ship from USA and China, so delivery times will vary), buyer will be notified throughout the process via TwnklBds message system as the order is processed and shipped. If you win multiple Shobbit offered items, the items will be grouped and shipped at once, please contact us for assistance.

Shipping Privacy Policy: Select personal data shared will be shared with fulfilment and shipping partners to handle your order, please see our Privacy Policy for further details.

Return Policy: All sales are final, however if any item arrives damaged or a manufacturing defect occurs, contact us immediately for assistance.

Additional Information

Country: Las Vegas United States (89128)
Shipping conditions: Buyer pays shipping expenses, International shipping
Shipping countries & terms:  *We reserve the right to substitute a similar item should this item be out of stock or not available in your region

Payment methods: PernumPay
Starting Bid: 1 YEM

Auction started: 2018-12-03 04:59
Auction ends: 2019-01-02 04:59
Auction ID: 1473

Item category: All > Electronics & Photography > General

Bids history

Bidder Bid Time
Bidder 1 5,049 YEM 02 January 2019 - 03:57:02
Bidder 2 4,999 YEM 02 January 2019 - 03:57:02
Bidder 1 4,949 YEM 02 January 2019 - 03:56:46
Bidder 2 4,899 YEM 02 January 2019 - 03:56:46
Bidder 1 4,849 YEM 02 January 2019 - 03:56:27
Bidder 2 4,799 YEM 02 January 2019 - 03:56:27
Bidder 1 4,749 YEM 02 January 2019 - 03:56:10
Bidder 2 4,699 YEM 02 January 2019 - 03:56:10
Bidder 1 4,649 YEM 02 January 2019 - 03:55:41
Bidder 2 4,599 YEM 02 January 2019 - 03:55:41
Bidder 1 4,549 YEM 02 January 2019 - 03:55:26
Bidder 2 4,499 YEM 02 January 2019 - 03:55:26
Bidder 1 4,349 YEM 02 January 2019 - 03:55:01
Bidder 2 4,299 YEM 02 January 2019 - 03:55:01
Bidder 1 4,247 YEM 02 January 2019 - 03:54:37
Bidder 2 4,197 YEM 02 January 2019 - 03:54:37
Bidder 1 4,047 YEM 02 January 2019 - 03:54:16
Bidder 2 3,997 YEM 02 January 2019 - 03:54:16
Bidder 1 3,947 YEM 02 January 2019 - 03:54:00
Bidder 2 3,897 YEM 02 January 2019 - 03:54:00
Bidder 1 3,847 YEM 02 January 2019 - 03:53:44
Bidder 2 3,797 YEM 02 January 2019 - 03:53:44
Bidder 1 3,737 YEM 02 January 2019 - 03:53:21
Bidder 2 3,687 YEM 02 January 2019 - 03:53:21
Bidder 1 3,637 YEM 02 January 2019 - 03:53:00
Bidder 2 3,587 YEM 02 January 2019 - 03:53:00
Bidder 1 3,537 YEM 02 January 2019 - 03:52:28
Bidder 2 3,487 YEM 02 January 2019 - 03:52:28
Bidder 1 3,437 YEM 02 January 2019 - 03:51:58
Bidder 2 3,387 YEM 02 January 2019 - 03:51:58
Bidder 1 3,337 YEM 02 January 2019 - 03:51:37
Bidder 2 3,287 YEM 02 January 2019 - 03:51:37
Bidder 1 3,237 YEM 02 January 2019 - 03:51:15
Bidder 2 3,187 YEM 02 January 2019 - 03:51:15
Bidder 1 3,050 YEM 01 January 2019 - 01:54:34
Bidder 3 3,000 YEM 01 January 2019 - 01:54:34
Bidder 1 2,050 YEM 01 January 2019 - 01:54:21
Bidder 3 2,000 YEM 01 January 2019 - 01:54:21
Bidder 1 1,005 YEM 01 January 2019 - 01:54:08
Bidder 3 1,000 YEM 01 January 2019 - 01:54:08
Bidder 1 805 YEM 30 December 2018 - 22:09:06
Bidder 4 800 YEM 30 December 2018 - 22:09:06
Bidder 1 705 YEM 30 December 2018 - 22:08:59
Bidder 4 700 YEM 30 December 2018 - 22:08:59
Bidder 1 605 YEM 30 December 2018 - 22:08:54
Bidder 4 600 YEM 30 December 2018 - 22:08:54
Bidder 1 502 YEM 30 December 2018 - 22:08:47
Bidder 4 500 YEM 30 December 2018 - 22:08:47
Bidder 1 402 YEM 30 December 2018 - 22:08:40
Bidder 4 400 YEM 30 December 2018 - 22:08:40
Bidder 1 290 YEM 30 December 2018 - 12:14:43
Bidder 2 288 YEM 30 December 2018 - 12:14:43
Bidder 1 280 YEM 30 December 2018 - 12:14:23
Bidder 2 278 YEM 30 December 2018 - 12:14:23
Bidder 1 180 YEM 30 December 2018 - 12:14:10
Bidder 2 178 YEM 30 December 2018 - 12:14:10
Bidder 1 170 YEM 30 December 2018 - 12:13:50
Bidder 2 168 YEM 30 December 2018 - 12:13:50
Bidder 1 160 YEM 30 December 2018 - 12:13:31
Bidder 2 158 YEM 30 December 2018 - 12:13:31
Bidder 1 150 YEM 30 December 2018 - 12:13:18
Bidder 2 148 YEM 30 December 2018 - 12:13:18
Bidder 1 140 YEM 30 December 2018 - 12:13:05
Bidder 2 138 YEM 30 December 2018 - 12:13:05
Bidder 1 130 YEM 30 December 2018 - 12:12:48
Bidder 2 128 YEM 30 December 2018 - 12:12:48
Bidder 1 120 YEM 30 December 2018 - 12:12:34
Bidder 2 118 YEM 30 December 2018 - 12:12:34
Bidder 1 113 YEM 30 December 2018 - 12:12:20
Bidder 2 111 YEM 30 December 2018 - 12:12:20
Bidder 1 106 YEM 29 December 2018 - 13:24:56
Bidder 2 104 YEM 29 December 2018 - 13:24:56
Bidder 2 101 YEM 29 December 2018 - 12:47:06
Bidder 5 100 YEM 29 December 2018 - 12:46:50
Bidder 2 100 YEM 29 December 2018 - 12:46:50
Bidder 5 97 YEM 29 December 2018 - 12:46:20
Bidder 2 96 YEM 29 December 2018 - 12:46:20
Bidder 5 94 YEM 29 December 2018 - 12:46:08
Bidder 2 93 YEM 29 December 2018 - 12:46:08
Bidder 5 89 YEM 29 December 2018 - 12:45:51
Bidder 2 88 YEM 29 December 2018 - 12:45:51
Bidder 5 86 YEM 29 December 2018 - 12:45:36
Bidder 2 85 YEM 29 December 2018 - 12:45:36
Bidder 5 80 YEM 29 December 2018 - 07:04:34
Bidder 2 79 YEM 29 December 2018 - 07:04:34
Bidder 5 70 YEM 29 December 2018 - 07:03:49
Bidder 2 69 YEM 29 December 2018 - 07:03:49
Bidder 5 63 YEM 29 December 2018 - 07:03:15
Bidder 2 62 YEM 29 December 2018 - 07:03:15
Bidder 5 51 YEM 24 December 2018 - 17:41:38
Bidder 6 50 YEM 24 December 2018 - 17:41:38
Bidder 6 36 YEM 17 December 2018 - 22:34:01
Bidder 7 35 YEM 17 December 2018 - 22:34:01
Bidder 6 31 YEM 17 December 2018 - 22:33:44
Bidder 7 30 YEM 17 December 2018 - 22:33:44
Bidder 6 21 YEM 10 December 2018 - 14:05:33
Bidder 7 20 YEM 10 December 2018 - 14:05:33
Bidder 7 6 YEM 10 December 2018 - 10:41:24
Bidder 6 5 YEM 10 December 2018 - 10:41:24
Bidder 6 3 YEM 10 December 2018 - 02:15:19
Bidder 8 2 YEM 10 December 2018 - 02:15:19
Bidder 8 1 YEM 03 December 2018 - 14:35:03